SCP
-0 0 0 0 -0 -0 0 0 0 -0 -0 0 0 0 -0 -0 -0 -0 -0 -0 -0 -0 -0 0 0 0 0 0 0 0 0 0 0 0 0 0 0 0 0 0 0 0 0 0
-0 0 0 0 0 0 0 0 0 -0 -0 -0 0 -0 -0 -0 -0 -0 -0 -0 -0 -0 0 0 0 0 0 0 0 0 0 0 0 0 0 0 0 0 0 0 0 0 0 0
0 0 0 0 -0 -0 0 0 0 -0 -0 0 0 -0 -0 -0 -0 -0 -0 -0 -0 -0 0 0 0 0 0 0 0 0 0 0 0 0 0 0 0 0 0 0 0 0 0 0
-0 0 0 0 0 0 0 0 0 0 -0 -0 -0 -0 0 -0 -0 0 0 0 0 0 0 0 0 0 0 0 0 0 0 0 0 0 0 0 0 0 0 0 0 0 0 0
0 -0 -0 0 0 0 0 0 0 0 -0 0 0 -0 0 -0 0 0 0 0 0 0 0 0 1 0 0 0 0 0 0 0 0 0 0 0 0 0 0 0 0 0 0 0
0 0 0 0 0 0 0 0 -0 -0 0 0 -0 -0 0 0 0 0 0 0 0 0 0 0 0 0 0 0 0 0 0 0 0 0 0 0 0 0 0 0 0 0 0 0
0 0 0 0 0 0 -0 -0 0 0 0 -0 0 0 -0 0 0 0 0 0 0 0 0 0 0 0 0 0 0 0 0 0 0 0 0 0 0 0 0 0 0 0 0 0
0 0 0 0 0 0 -0 0 0 0 0 0 0 0 0 0 0 0 0 -0 -0 -0 -0 -0 -0 0 0 0 0 0 0 0 0 0 0 0 0 0 0 0 0 0 0 0
-0 0 0 0 0 0 0 -0 0 0 0 0 -0 0 0 0 0 0 -0 -0 -0 -0 -0 -0 0 0 0 0 0 0 0 0 0 0 0 0 0 0 0 0 0 0 0 0
0 0 0 0 0 0 0 0 0 0 0 0 0 0 0 0 0 0 -0 -0 -0 0 0 0 0 0 0 0 0 0 0 0 0 0 0 0 0 0 0 0 0 0 0 0
0 0 -0 0 -0 0 0 0 0 0 0 0 0 0 0 0 0 0 0 0 0 0 0 0 0 0 0 0 0 0 0 0 0 0 0 0 0 0 0 0 0 0 0 0
0 0 0 -0 0 0 0 0 0 0 0 0 0 0 0 0 0 0 0 0 0 0 0 0 0 0 0 0 0 0 0 0 0 0 0 0 0 0 0 0 0 0 0 0
0 0 0 0 0 0 0 0 0 0 0 0 0 0 0 0 0 0 0 0 0 0 0 0 0 0 0 0 0 0 0 0 0 0 0 0 0 0 0 0 0 0 0 0
0 0 0 0 0 0 0 0 0 0 0 0 -0 0 0 0 0 0 0 0 0 0 0 0 0 0 0 0 0 0 0 0 0 0 0 0 0 0 0 0 0 0 0 0
0 0 0 0 0 0 0 0 0 -0 -0 -0 0 -0 0 0 0 0 0 0 0 0 0 0 0 0 0 0 0 0 0 0 0 0 0 0 0 0 0 0 0 0 0 0
0 0 0 0 0 0 0 0 0 0 -0 -0 -0 -0 0 0 0 0 0 0 0 0 0 0 0 0 0 0 0 0 0 0 0 0 0 0 0 0 0 0 0 0 0 0
0 0 0 0 0 0 0 0 -0 -0 0 0 0 0 0 0 0 0 0 0 0 0 0 0 0 0 0 0 0 0 0 0 0 0 0 0 0 0 0 0 0 0 0 0
0 0 0 0 0 0 0 0 0 0 0 0 0 0 0 0 0 0 0 0 0 0 0 0 0 0 0 0 0 0 0 0 0 0 0 0 0 0 0 0 0 0 0 0
0 0 0 0 0 0 0 0 0 0 0 0 0 0 0 0 0 0 0 0 0 0 0 0 0 0 0 0 0 0 0 0 0 0 0 0 0 0 0 0 0 0 0 0
0 0 0 0 0 0 0 0 0 0 0 0 0 0 0 0 0 0 0 0 0 0 0 0 0 0 0 0 0 0 0 0 0 0 0 0 0 0 0 0 0 0 0 0
0 0 0 0 0 0 0 0 0 0 0 0 0 0 0 0 0 0 0 0 0 0 0 0 0 0 0 0 0 0 0 0 0 0 0 0 0 0 0 0 0 0 0 0
0 0 0 0 0 0 0 0 0 0 0 0 0 0 0 0 0 0 0 0 0 0 0 0 0 0 0 0 0 0 0 0 0 0 0 0 0 0 0 0 0 0 0 0
0 0 0 0 0 0 0 0 0 0 0 0 0 0 0 0 0 0 0 0 0 0 0 0 0 0 0 0 0 0 0 0 0 0 0 0 0 0 0 0 0 0 0 0
0 0 0 0 0 0 0 0 0 0 0 0 0 0 0 0 0 0 0 0 0 0 0 0 0 0 0 0 0 0 0 0 0 0 0 0 0 0 0 0 0 0 0 0
0 0 0 0 0 0 0 0 0 0 0 0 0 0 0 0 0 0 0 0 0 0 0 0 0 0 0 0 0 0 0 0 0 0 0 0 0 0 0 0 0 0 0 0
0 0 0 0 0 0 0 0 0 0 0 0 0 0 0 0 0 0 0 0 0 0 0 0 0 0 0 0 0 0 0 0 0 0 0 0 0 0 0 0 0 0 0 0
Wind_Speed_500mb
26 14 23 29 31 18 7 15 22 27 22 26 24 21 25 32 33 35 35 38 39 39 37 29 28 28 33 37 39 40 42 30 41 35 27 26 24 21 19 14 9 8 7 3
13 19 15 21 6 14 13 13 15 21 22 18 20 24 23 30 37 39 39 39 41 40 32 28 28 30 34 40 37 38 34 23 32 20 19 18 19 16 13 12 13 13 9 7
2 13 10 13 14 13 14 4 16 14 21 27 19 28 29 24 29 29 37 41 40 41 35 33 32 31 35 38 39 38 29 26 26 25 25 23 21 20 16 16 11 14 10 6
39 35 13 16 13 13 20 4 2 9 24 26 35 26 38 36 32 29 35 35 38 37 37 33 33 34 35 40 36 34 35 31 30 31 25 24 16 13 15 16 15 12 16 11
6 17 18 15 8 9 17 5 8 12 24 15 27 16 35 30 30 31 35 37 38 38 35 35 34 33 38 41 39 34 34 35 35 28 24 21 13 10 11 13 15 12 17 18
4 15 5 11 6 8 9 8 12 15 19 16 31 26 10 24 27 33 29 32 36 36 37 36 39 45 45 39 37 37 37 35 31 26 20 16 14 12 12 12 14 16 18 24
24 19 8 10 13 6 15 17 15 11 8 16 9 11 25 14 8 10 27 35 38 39 40 43 48 46 43 40 37 36 34 31 28 25 21 17 14 11 8 14 14 19 22 25
24 16 23 13 18 10 19 22 11 13 14 14 15 14 6 17 3 8 28 37 39 39 40 45 46 42 39 36 34 33 32 30 27 25 22 18 14 8 11 14 15 18 19 22
30 10 14 4 5 11 11 14 10 8 1 11 20 18 19 11 12 14 29 39 41 41 42 46 44 40 38 36 34 33 34 30 29 27 22 12 16 12 14 13 12 15 18 22
8 7 9 10 9 12 16 6 7 9 7 14 8 13 10 14 14 16 28 38 42 42 44 45 44 40 38 35 33 35 35 34 31 23 14 11 15 14 11 10 13 15 19 24
14 17 14 10 20 22 13 17 12 9 5 8 7 5 15 6 11 18 26 37 41 44 46 44 42 41 39 36 37 37 37 37 28 17 8 15 16 15 10 11 14 17 22 27
8 9 14 20 9 10 20 16 19 11 13 8 8 11 7 11 7 15 24 34 39 44 46 44 44 42 41 41 39 39 39 32 22 12 18 12 19 15 14 15 17 20 26 30
11 13 17 15 12 14 17 19 16 16 4 18 7 6 11 14 7 11 19 29 38 45 47 44 45 44 43 41 41 41 36 27 13 10 9 20 18 16 18 20 21 23 29 30
2 23 19 20 17 11 24 24 23 23 15 20 24 26 11 19 15 15 19 25 35 43 44 46 45 45 43 42 41 39 34 19 10 13 23 20 20 20 21 21 22 27 30 30
8 19 25 28 10 15 17 18 21 31 34 30 25 31 25 17 11 19 21 26 33 36 42 45 46 45 44 42 41 39 26 18 19 21 22 18 20 20 20 21 24 28 29 29
11 12 6 12 19 18 23 27 29 29 32 35 38 36 32 25 23 16 25 24 31 37 40 43 44 43 43 42 41 34 28 25 22 20 17 19 18 21 21 23 27 28 30 31
12 8 7 11 6 10 13 31 35 35 34 28 31 32 22 16 13 22 24 20 26 31 37 41 43 42 41 40 38 33 28 23 18 19 18 17 19 21 22 25 27 28 30 32
11 13 3 1 3 2 6 3 9 13 24 29 26 29 27 20 18 13 15 18 22 26 31 35 37 37 37 36 34 33 23 17 19 16 16 17 20 22 25 27 28 29 31 31
7 9 5 5 12 18 24 9 3 3 9 19 16 20 17 10 11 28 18 11 15 21 25 29 32 34 35 35 33 27 20 18 16 15 15 17 23 26 28 30 31 31 31 31
7 3 8 6 6 8 7 8 3 3 8 18 19 17 10 5 8 8 5 5 10 16 22 27 30 33 36 35 31 27 18 14 15 16 20 21 24 27 29 31 33 31 32 33
5 2 11 11 6 11 10 4 3 9 7 20 20 20 13 13 12 12 12 12 15 19 23 27 30 32 31 28 24 17 10 14 16 22 21 22 25 27 29 30 29 30 34 35
12 14 6 6 6 10 11 12 3 11 15 18 22 19 18 20 18 18 12 12 13 17 20 24 25 26 23 14 4 2 11 10 18 18 21 25 28 28 29 29 28 30 36 35
8 8 3 12 2 10 8 8 7 15 19 22 25 24 25 26 29 23 17 11 12 17 17 21 25 20 13 5 2 6 8 22 18 26 29 28 28 29 31 32 32 35 35 31
7 4 5 3 7 1 8 8 6 16 21 25 25 25 25 27 27 22 9 8 12 16 21 21 19 14 9 3 10 8 23 28 28 28 28 27 28 29 30 33 32 36 35 33
7 12 8 10 14 11 10 11 20 25 22 21 22 18 21 21 19 2 9 13 17 18 16 16 16 9 3 7 21 25 28 25 26 27 27 29 27 27 32 33 34 37 36 38
3 3 5 2 9 9 16 21 21 18 19 19 16 13 20 14 12 19 23 22 22 24 22 14 7 8 16 22 27 28 26 25 27 28 26 24 30 30 32 36 42 40 44 44
Wind_Direction_500mb
189 225 224 191 215 279 273 208 201 145 157 202 208 149 170 184 195 184 185 182 183 182 182 186 184 181 181 177 193 180 195 207 217 218 254 155 185 222 208 225 219 210 203 246
170 213 240 177 214 279 252 208 137 124 177 239 192 179 170 186 205 197 198 194 194 190 181 189 186 182 184 184 190 191 195 209 197 219 196 202 186 180 181 197 197 188 211 240
58 305 169 204 203 203 238 197 286 184 183 224 194 195 183 189 205 209 206 204 199 197 197 191 188 183 179 186 186 183 187 181 177 170 159 162 166 178 181 197 206 211 235 276
145 237 203 206 198 282 216 24 181 160 194 211 204 235 181 177 186 196 206 214 203 195 197 193 188 182 182 179 178 175 176 174 173 163 170 173 184 206 216 214 225 239 267 288
106 184 198 219 55 282 101 168 247 246 257 212 202 253 198 192 193 189 192 201 202 198 191 185 180 180 168 165 167 170 175 174 174 171 181 187 208 215 218 221 227 255 276 291
272 319 300 71 105 267 129 203 222 243 257 264 262 254 220 192 218 175 178 194 189 181 177 170 165 159 159 162 165 170 173 178 182 183 186 201 197 211 220 229 241 267 276 291
190 192 116 184 152 165 228 246 255 212 247 245 60 288 257 109 86 158 175 186 178 173 170 166 164 164 165 166 168 171 175 180 180 183 185 188 188 194 221 248 266 278 291 295
196 184 182 173 263 306 210 298 268 290 293 275 132 249 116 77 98 187 174 179 175 177 176 174 173 173 174 175 173 174 179 181 185 181 181 174 170 220 248 259 269 289 290 296
254 158 109 212 218 277 153 243 5 309 87 273 264 242 152 139 146 173 172 176 181 184 183 181 182 184 184 183 184 186 184 186 186 181 177 247 280 214 233 256 273 282 296 296
274 129 183 129 212 208 279 58 215 220 260 258 234 249 90 155 171 182 180 185 188 191 188 188 190 190 190 191 190 186 187 187 183 181 234 205 210 227 225 253 274 290 293 298
250 252 151 163 214 243 173 229 233 307 284 287 299 86 76 81 166 187 196 192 195 196 195 195 197 197 196 194 190 187 186 183 185 192 247 241 244 221 238 269 279 289 294 304
193 266 248 239 77 316 293 266 222 233 233 224 305 297 153 133 151 189 199 200 202 204 203 203 204 200 200 198 194 192 186 182 181 230 284 223 220 241 263 271 280 288 301 306
186 238 246 235 212 221 241 230 246 242 314 240 236 271 160 158 196 201 218 208 207 210 208 209 207 206 203 200 198 194 188 185 252 291 225 217 233 257 268 271 278 292 301 303
348 243 235 245 282 323 207 239 225 219 227 246 250 266 230 204 228 229 224 226 214 214 213 213 211 210 208 204 201 199 194 230 241 209 218 235 250 264 267 268 279 294 299 299
243 238 241 261 307 288 287 272 239 238 241 247 264 264 284 303 280 247 245 233 223 218 217 214 213 212 209 205 204 201 199 199 200 209 227 250 258 262 263 269 284 294 295 298
200 245 269 257 243 264 273 266 260 256 250 258 261 265 286 334 298 264 267 240 234 222 219 216 216 214 210 207 205 205 201 194 194 215 240 256 258 259 262 275 287 294 296 297
191 208 193 248 343 309 284 247 248 252 249 253 264 276 309 322 282 275 271 244 242 236 225 221 217 216 212 209 204 203 195 188 216 229 247 261 256 256 268 280 286 292 293 292
183 201 114 230 251 286 274 25 320 294 280 268 271 281 284 292 312 299 269 262 242 242 231 223 218 214 211 207 203 191 197 207 219 241 256 257 257 270 278 281 283 289 290 296
226 153 150 181 222 290 285 176 301 264 300 34 340 340 341 3 299 261 227 245 258 245 233 222 215 210 204 198 188 192 192 207 243 257 266 266 268 275 280 285 286 283 292 293
121 222 216 167 207 233 67 86 114 252 247 28 358 345 335 228 283 58 124 205 231 229 218 210 206 199 196 189 189 184 201 234 261 267 275 269 274 282 289 289 285 284 291 292
138 224 212 203 254 285 60 138 214 241 37 358 351 329 295 255 0 351 319 249 226 216 204 195 192 190 190 188 186 183 191 248 259 277 270 280 284 288 289 283 280 287 291 288
172 170 190 177 204 265 129 140 317 16 327 340 331 324 303 280 301 314 294 255 227 198 178 171 173 170 169 166 162 265 270 261 276 278 285 286 291 289 286 284 288 292 290 286
209 221 247 206 220 102 177 349 328 319 314 321 318 306 301 287 284 287 284 236 199 179 164 161 160 156 138 91 54 264 287 294 278 279 288 293 292 284 284 286 293 292 288 281
199 147 224 285 108 177 290 317 359 351 331 320 312 309 306 299 297 286 255 198 166 161 153 157 147 138 92 345 301 310 295 282 293 297 295 293 287 283 280 286 292 289 287 277
23 163 222 242 293 328 105 33 345 331 327 322 320 323 328 317 306 218 159 146 141 120 130 142 109 70 38 308 311 298 293 295 297 294 290 287 289 286 285 288 289 283 281 276
216 28 215 229 41 347 327 355 353 357 2 360 1 14 27 37 86 117 111 115 131 132 103 75 42 344 322 307 296 288 291 295 296 296 296 295 286 287 288 290 286 281 279 280
Wind_Speed_850mb
26 14 23 29 31 18 7 15 22 27 22 26 24 21 25 32 33 35 35 38 39 39 37 29 28 28 33 37 39 40 42 30 41 35 27 26 24 21 19 14 9 8 7 3
13 19 15 21 6 14 13 13 15 21 22 18 20 24 23 30 37 39 39 39 41 40 32 28 28 30 34 40 37 38 34 23 32 20 19 18 19 16 13 12 13 13 9 7
2 13 10 13 14 13 14 4 16 14 21 27 19 28 29 24 29 29 37 41 40 41 35 33 32 31 35 38 39 38 29 26 26 25 25 23 21 20 16 16 11 14 10 6
39 35 13 16 13 13 20 4 2 9 24 26 35 26 38 36 32 29 35 35 38 37 37 33 33 34 35 40 36 34 35 31 30 31 25 24 16 13 15 16 15 12 16 11
6 17 18 15 8 9 17 5 8 12 24 15 27 16 35 30 30 31 35 37 38 38 35 35 34 33 38 41 39 34 34 35 35 28 24 21 13 10 11 13 15 12 17 18
4 15 5 11 6 8 9 8 12 15 19 16 31 26 10 24 27 33 29 32 36 36 37 36 39 45 45 39 37 37 37 35 31 26 20 16 14 12 12 12 14 16 18 24
24 19 8 10 13 6 15 17 15 11 8 16 9 11 25 14 8 10 27 35 38 39 40 43 48 46 43 40 37 36 34 31 28 25 21 17 14 11 8 14 14 19 22 25
24 16 23 13 18 10 19 22 11 13 14 14 15 14 6 17 3 8 28 37 39 39 40 45 46 42 39 36 34 33 32 30 27 25 22 18 14 8 11 14 15 18 19 22
30 10 14 4 5 11 11 14 10 8 1 11 20 18 19 11 12 14 29 39 41 41 42 46 44 40 38 36 34 33 34 30 29 27 22 12 16 12 14 13 12 15 18 22
8 7 9 10 9 12 16 6 7 9 7 14 8 13 10 14 14 16 28 38 42 42 44 45 44 40 38 35 33 35 35 34 31 23 14 11 15 14 11 10 13 15 19 24
14 17 14 10 20 22 13 17 12 9 5 8 7 5 15 6 11 18 26 37 41 44 46 44 42 41 39 36 37 37 37 37 28 17 8 15 16 15 10 11 14 17 22 27
8 9 14 20 9 10 20 16 19 11 13 8 8 11 7 11 7 15 24 34 39 44 46 44 44 42 41 41 39 39 39 32 22 12 18 12 19 15 14 15 17 20 26 30
11 13 17 15 12 14 17 19 16 16 4 18 7 6 11 14 7 11 19 29 38 45 47 44 45 44 43 41 41 41 36 27 13 10 9 20 18 16 18 20 21 23 29 30
2 23 19 20 17 11 24 24 23 23 15 20 24 26 11 19 15 15 19 25 35 43 44 46 45 45 43 42 41 39 34 19 10 13 23 20 20 20 21 21 22 27 30 30
8 19 25 28 10 15 17 18 21 31 34 30 25 31 25 17 11 19 21 26 33 36 42 45 46 45 44 42 41 39 26 18 19 21 22 18 20 20 20 21 24 28 29 29
11 12 6 12 19 18 23 27 29 29 32 35 38 36 32 25 23 16 25 24 31 37 40 43 44 43 43 42 41 34 28 25 22 20 17 19 18 21 21 23 27 28 30 31
12 8 7 11 6 10 13 31 35 35 34 28 31 32 22 16 13 22 24 20 26 31 37 41 43 42 41 40 38 33 28 23 18 19 18 17 19 21 22 25 27 28 30 32
11 13 3 1 3 2 6 3 9 13 24 29 26 29 27 20 18 13 15 18 22 26 31 35 37 37 37 36 34 33 23 17 19 16 16 17 20 22 25 27 28 29 31 31
7 9 5 5 12 18 24 9 3 3 9 19 16 20 17 10 11 28 18 11 15 21 25 29 32 34 35 35 33 27 20 18 16 15 15 17 23 26 28 30 31 31 31 31
7 3 8 6 6 8 7 8 3 3 8 18 19 17 10 5 8 8 5 5 10 16 22 27 30 33 36 35 31 27 18 14 15 16 20 21 24 27 29 31 33 31 32 33
5 2 11 11 6 11 10 4 3 9 7 20 20 20 13 13 12 12 12 12 15 19 23 27 30 32 31 28 24 17 10 14 16 22 21 22 25 27 29 30 29 30 34 35
12 14 6 6 6 10 11 12 3 11 15 18 22 19 18 20 18 18 12 12 13 17 20 24 25 26 23 14 4 2 11 10 18 18 21 25 28 28 29 29 28 30 36 35
8 8 3 12 2 10 8 8 7 15 19 22 25 24 25 26 29 23 17 11 12 17 17 21 25 20 13 5 2 6 8 22 18 26 29 28 28 29 31 32 32 35 35 31
7 4 5 3 7 1 8 8 6 16 21 25 25 25 25 27 27 22 9 8 12 16 21 21 19 14 9 3 10 8 23 28 28 28 28 27 28 29 30 33 32 36 35 33
7 12 8 10 14 11 10 11 20 25 22 21 22 18 21 21 19 2 9 13 17 18 16 16 16 9 3 7 21 25 28 25 26 27 27 29 27 27 32 33 34 37 36 38
3 3 5 2 9 9 16 21 21 18 19 19 16 13 20 14 12 19 23 22 22 24 22 14 7 8 16 22 27 28 26 25 27 28 26 24 30 30 32 36 42 40 44 44
Wind_Direction_850mb
189 225 224 191 215 279 273 208 201 145 157 202 208 149 170 184 195 184 185 182 183 182 182 186 184 181 181 177 193 180 195 207 217 218 254 155 185 222 208 225 219 210 203 246
170 213 240 177 214 279 252 208 137 124 177 239 192 179 170 186 205 197 198 194 194 190 181 189 186 182 184 184 190 191 195 209 197 219 196 202 186 180 181 197 197 188 211 240
58 305 169 204 203 203 238 197 286 184 183 224 194 195 183 189 205 209 206 204 199 197 197 191 188 183 179 186 186 183 187 181 177 170 159 162 166 178 181 197 206 211 235 276
145 237 203 206 198 282 216 24 181 160 194 211 204 235 181 177 186 196 206 214 203 195 197 193 188 182 182 179 178 175 176 174 173 163 170 173 184 206 216 214 225 239 267 288
106 184 198 219 55 282 101 168 247 246 257 212 202 253 198 192 193 189 192 201 202 198 191 185 180 180 168 165 167 170 175 174 174 171 181 187 208 215 218 221 227 255 276 291
272 319 300 71 105 267 129 203 222 243 257 264 262 254 220 192 218 175 178 194 189 181 177 170 165 159 159 162 165 170 173 178 182 183 186 201 197 211 220 229 241 267 276 291
190 192 116 184 152 165 228 246 255 212 247 245 60 288 257 109 86 158 175 186 178 173 170 166 164 164 165 166 168 171 175 180 180 183 185 188 188 194 221 248 266 278 291 295
196 184 182 173 263 306 210 298 268 290 293 275 132 249 116 77 98 187 174 179 175 177 176 174 173 173 174 175 173 174 179 181 185 181 181 174 170 220 248 259 269 289 290 296
254 158 109 212 218 277 153 243 5 309 87 273 264 242 152 139 146 173 172 176 181 184 183 181 182 184 184 183 184 186 184 186 186 181 177 247 280 214 233 256 273 282 296 296
274 129 183 129 212 208 279 58 215 220 260 258 234 249 90 155 171 182 180 185 188 191 188 188 190 190 190 191 190 186 187 187 183 181 234 205 210 227 225 253 274 290 293 298
250 252 151 163 214 243 173 229 233 307 284 287 299 86 76 81 166 187 196 192 195 196 195 195 197 197 196 194 190 187 186 183 185 192 247 241 244 221 238 269 279 289 294 304
193 266 248 239 77 316 293 266 222 233 233 224 305 297 153 133 151 189 199 200 202 204 203 203 204 200 200 198 194 192 186 182 181 230 284 223 220 241 263 271 280 288 301 306
186 238 246 235 212 221 241 230 246 242 314 240 236 271 160 158 196 201 218 208 207 210 208 209 207 206 203 200 198 194 188 185 252 291 225 217 233 257 268 271 278 292 301 303
348 243 235 245 282 323 207 239 225 219 227 246 250 266 230 204 228 229 224 226 214 214 213 213 211 210 208 204 201 199 194 230 241 209 218 235 250 264 267 268 279 294 299 299
243 238 241 261 307 288 287 272 239 238 241 247 264 264 284 303 280 247 245 233 223 218 217 214 213 212 209 205 204 201 199 199 200 209 227 250 258 262 263 269 284 294 295 298
200 245 269 257 243 264 273 266 260 256 250 258 261 265 286 334 298 264 267 240 234 222 219 216 216 214 210 207 205 205 201 194 194 215 240 256 258 259 262 275 287 294 296 297
191 208 193 248 343 309 284 247 248 252 249 253 264 276 309 322 282 275 271 244 242 236 225 221 217 216 212 209 204 203 195 188 216 229 247 261 256 256 268 280 286 292 293 292
183 201 114 230 251 286 274 25 320 294 280 268 271 281 284 292 312 299 269 262 242 242 231 223 218 214 211 207 203 191 197 207 219 241 256 257 257 270 278 281 283 289 290 296
226 153 150 181 222 290 285 176 301 264 300 34 340 340 341 3 299 261 227 245 258 245 233 222 215 210 204 198 188 192 192 207 243 257 266 266 268 275 280 285 286 283 292 293
121 222 216 167 207 233 67 86 114 252 247 28 358 345 335 228 283 58 124 205 231 229 218 210 206 199 196 189 189 184 201 234 261 267 275 269 274 282 289 289 285 284 291 292
138 224 212 203 254 285 60 138 214 241 37 358 351 329 295 255 0 351 319 249 226 216 204 195 192 190 190 188 186 183 191 248 259 277 270 280 284 288 289 283 280 287 291 288
172 170 190 177 204 265 129 140 317 16 327 340 331 324 303 280 301 314 294 255 227 198 178 171 173 170 169 166 162 265 270 261 276 278 285 286 291 289 286 284 288 292 290 286
209 221 247 206 220 102 177 349 328 319 314 321 318 306 301 287 284 287 284 236 199 179 164 161 160 156 138 91 54 264 287 294 278 279 288 293 292 284 284 286 293 292 288 281
199 147 224 285 108 177 290 317 359 351 331 320 312 309 306 299 297 286 255 198 166 161 153 157 147 138 92 345 301 310 295 282 293 297 295 293 287 283 280 286 292 289 287 277
23 163 222 242 293 328 105 33 345 331 327 322 320 323 328 317 306 218 159 146 141 120 130 142 109 70 38 308 311 298 293 295 297 294 290 287 289 286 285 288 289 283 281 276
216 28 215 229 41 347 327 355 353 357 2 360 1 14 27 37 86 117 111 115 131 132 103 75 42 344 322 307 296 288 291 295 296 296 296 295 286 287 288 290 286 281 279 280